[[{"header":{"parameterUnit":"m.s-1","parameterCategory":1,"la1":30.2991,"la2":30.254,"lo1":-89.0895,"lo2":-89.0444,"dy":0.0017,"dx":0.0017,"nx":28,"ny":28,"refTime":"2024-06-25T21:00:00:Z","depth":0,"parameterNumber":2,"parameterNumberName":"U-component_of_WINDS"},"data":[0,0,0,0,0,0,0,0,0,0,0,0,0,0,0,0,0,0,0,0,0,0,0,0,0,0,0,0,0,0,0,0,0,0,0,0,0,0,0,0,0,0,0,0,0,0,0,0,0,0,0,0,0,0,0,0,0,0,7.0135,7.0138,0,7.0362,7.0364,7.0367,7.0335,7.0331,7.0328,7.0324,7.0557,7.0566,7.0576,0,0,0,0,0,0,0,0,0,0,0,0,0,6.9675,6.9683,7.0135,7.0138,7.0141,7.0361,7.0364,7.0367,7.0336,7.0331,7.0327,7.0322,7.0553,7.0565,7.0576,0,0,0,0,0,0,0,0,0,0,0,0,0,6.9885,6.9686,7.0135,7.0152,7.0155,7.036,7.0364,7.0368,7.0337,7.0331,7.0325,7.032,7.055,7.0564,7.0578,7.0781,0,0,7.0623,7.0629,0,0,0,0,0,0,0,0,6.9873,6.9902,7.0146,7.0151,7.0155,7.0314,7.0287,7.0507,7.0338,7.0268,7.0324,7.0317,7.0481,7.05,7.0555,7.0792,7.0802,7.0624,7.0633,7.0639,7.0643,0,0,0,0,0,0,0,6.9859,6.9892,7.0225,7.015,7.0156,7.0147,7.0171,7.0328,7.0403,7.0274,7.0272,7.0299,7.0482,7.0541,7.0561,7.0805,7.0623,7.0636,7.0645,7.0651,7.1215,7.1221,0,0,0,0,0,0,6.984,6.988,7.0218,7.0232,6.9998,7.016,7.0187,7.0269,7.0401,7.0416,7.0304,7.0297,7.0519,7.0544,7.0569,7.0811,7.0639,7.0652,7.0661,7.1209,7.1216,7.1223,0,0,0,0,0,0,6.983,6.987,7.0208,7.0056,7.0098,7.0174,7.0267,7.0276,7.0336,7.0424,7.0437,7.0351,7.0516,7.0548,7.0727,7.0819,7.0659,7.0672,7.1201,7.1211,7.122,7.13,0,0,0,0,0,0,6.9817,6.9867,6.9945,7.0058,7.0106,7.0364,7.0273,7.0285,7.0361,7.0354,7.0472,7.0486,7.0514,7.0706,7.0742,7.0836,7.0684,7.1193,7.1206,7.1217,7.129,7.1311,7.133,0,0,0,0,0,6.98,6.996,6.9949,6.999,7.0206,7.037,7.0397,7.0426,7.0368,7.0447,7.0503,7.0482,7.0804,7.0724,7.0765,7.0865,7.1188,7.1202,7.1216,7.1281,7.1307,7.1329,0,0,0,0,0,0,6.9858,6.9975,6.9965,7.0166,7.0258,7.0364,7.0464,7.0454,7.0565,7.0554,7.0585,7.0612,7.0792,7.0847,7.0756,7.1066,7.0988,7.101,7.1023,7.1049,7.1069,7.105,7.0696,0,0,0,0,0,6.9894,7.0017,7.0113,7.0281,7.0327,7.0388,7.0461,7.0474,7.0571,7.061,7.068,7.0774,7.0896,7.0976,7.1094,7.1298,7.1321,7.1387,7.1407,7.1423,7.1441,7.1549,7.1578,7.1269,7.1269,7.1269,0,0,6.997,7.0049,7.0125,7.0294,7.0367,7.0493,7.0421,7.0558,7.0651,7.0631,7.0803,7.0858,7.0965,7.1157,7.1245,7.1208,7.1532,7.1441,7.1453,7.1463,7.1567,7.1596,7.1622,7.1279,7.1277,7.1275,0,0,7.0171,7.0245,7.039,7.0464,7.0575,7.0614,7.0649,7.0757,7.0791,7.0965,7.0951,7.1062,7.1273,7.1348,7.1415,7.1641,7.1624,7.1679,7.1782,7.1887,7.1912,7.1933,7.201,7.2038,7.1698,7.1698,7.1698,0,7.0251,7.044,7.0467,7.0605,7.0678,7.0665,7.0811,7.0882,7.1026,7.1076,7.1033,7.1294,7.1366,7.1573,7.1628,7.1684,7.1722,7.1665,7.1906,7.1928,7.1949,7.2022,7.2052,7.1703,7.1703,7.1702,7.1702,0,7.0531,7.0662,7.0766,7.0903,7.0989,7.1131,7.1178,7.1262,7.1268,7.131,7.1485,7.157,7.1703,7.1754,7.1762,7.1961,7.1934,7.1899,7.182,7.1983,7.2053,7.2082,7.1712,7.1709,7.1708,7.1706,0,0,7.0775,7.0923,7.0961,7.1021,7.1141,7.1243,7.1383,7.1511,7.158,7.168,7.1796,7.1973,7.1939,7.2014,7.2031,7.2123,7.2292,7.2076,7.2079,7.211,7.2512,7.2536,7.2569,7.2283,7.2288,7.2293,7.2502,0,7.0985,7.1232,7.1259,7.1478,7.1598,7.1585,7.1707,7.1793,7.1836,7.1943,7.1991,7.2114,7.2063,7.2107,7.2198,7.2252,7.2373,7.2238,7.2389,7.2394,7.2359,7.2606,7.2632,7.2826,7.253,7.2535,7.2538,0,7.1264,7.1368,7.1599,7.1698,7.175,7.1858,7.1976,7.208,7.2176,7.22,7.2283,7.2286,7.2429,7.2346,7.2541,7.2448,7.2512,7.2547,7.2555,7.2568,7.2474,7.2622,7.2889,7.2916,7.2582,7.2578,7.2575,0,7.1414,7.1613,7.1776,7.1828,7.195,7.2025,7.208,7.217,7.2244,7.2348,7.2396,7.2515,7.258,7.2671,7.2706,7.2643,7.2898,7.2819,7.292,7.2919,7.2972,7.2968,7.3249,7.3019,7.3018,7.3018,7.3017,0,7.1644,7.1785,7.1844,7.1944,7.21,7.213,7.2284,7.2334,7.2415,7.2523,7.2521,7.2622,7.2663,7.2771,7.28,7.2954,7.2985,7.3007,7.3012,7.3005,7.3002,7.3045,7.3031,7.3025,7.3024,7.3022,7.3021,0,7.1838,7.1884,7.2059,7.2159,7.2187,7.2297,7.2382,7.2478,7.2519,7.2655,7.2689,7.2754,7.288,7.2924,7.3079,7.3097,7.3276,7.3272,7.3243,7.3243,7.334,7.3329,7.3656,7.3699,7.3444,7.3446,7.3448,0,7.198,7.2087,7.2198,7.2269,7.2325,7.2442,7.2517,7.255,7.2627,7.2743,7.2824,7.2949,7.3051,7.3253,7.3313,7.343,7.3426,7.3533,7.3443,7.3432,7.3423,7.3414,7.3423,7.3548,7.3551,7.3553,7.3555,0,7.2226,7.2243,7.2351,7.2466,7.2555,7.2647,7.2737,7.2796,7.2842,7.2929,7.3057,7.3136,7.3291,7.3414,7.3533,7.3588,7.3578,7.3583,7.3612,7.3604,7.3581,7.3591,7.3284,7.3575,7.3573,7.3571,7.357,7.3569,7.2397,7.249,7.258,7.27,7.277,7.2853,7.2946,7.2998,7.3105,7.3233,7.3246,7.3383,7.3474,7.3632,7.3692,7.3799,7.3769,7.3812,7.3822,7.3831,7.3836,7.3567,7.3821,7.382,7.382,7.382,7.3819,0,7.2639,7.2696,7.2806,7.293,7.3023,7.3006,7.3103,7.3181,7.3302,7.3387,7.3486,7.3631,7.3749,7.3818,7.3936,7.4008,7.4006,7.4038,7.4031,7.4043,7.3858,7.382,7.4037,7.4037,7.4037,7.4037,7.4037,7.4037,7.2777,7.2932,7.2959,7.3148,7.3204,7.3337,7.3394,7.3469,7.3536,7.3698,7.3796,7.384,7.3917,7.404,7.4148,7.4164,7.4206,7.424,7.4254,7.4079,7.4057,7.4035,7.3999,7.425,7.425,7.4429,7.443,7.4432]},{"header":{"parameterUnit":"m.s-1","parameterCategory":1,"la1":30.2991,"la2":30.254,"lo1":-89.0895,"lo2":-89.0444,"dy":0.0017,"dx":0.0017,"nx":28,"ny":28,"refTime":"2024-06-25T21:00:00:Z","depth":0,"parameterNumber":3,"parameterNumberName":"V-component_of_WINDS"},"data":[0,0,0,0,0,0,0,0,0,0,0,0,0,0,0,0,0,0,0,0,0,0,0,0,0,0,0,0,0,0,0,0,0,0,0,0,0,0,0,0,0,0,0,0,0,0,0,0,0,0,0,0,0,0,0,0,0,0,3.501,3.5011,0,3.514,3.5141,3.5143,3.513,3.5128,3.5126,3.5124,3.5258,3.5263,3.5268,0,0,0,0,0,0,0,0,0,0,0,0,0,3.4749,3.4754,3.501,3.5011,3.5013,3.514,3.5141,3.5143,3.513,3.5128,3.5125,3.5123,3.5256,3.5262,3.5269,0,0,0,0,0,0,0,0,0,0,0,0,0,3.4869,3.4756,3.5009,3.5022,3.5024,3.5139,3.5141,3.5144,3.5131,3.5128,3.5125,3.5122,3.5254,3.5262,3.527,3.5381,0,0,3.5295,3.5298,0,0,0,0,0,0,0,0,3.4862,3.4879,3.5018,3.5021,3.5024,3.5115,3.5099,3.5223,3.5132,3.509,3.5124,3.512,3.5213,3.5224,3.5255,3.5388,3.5393,3.5296,3.5301,3.5304,3.5306,0,0,0,0,0,0,0,3.4854,3.4873,3.5061,3.502,3.5024,3.502,3.5034,3.5122,3.5167,3.5094,3.5093,3.5109,3.5214,3.5248,3.5258,3.5395,3.5295,3.5303,3.5308,3.5311,3.5624,3.5627,0,0,0,0,0,0,3.4843,3.4866,3.5057,3.5065,3.4934,3.5028,3.5043,3.5089,3.5166,3.5175,3.5111,3.5107,3.5235,3.5249,3.5263,3.5398,3.5304,3.5312,3.5316,3.5621,3.5625,3.5629,0,0,0,0,0,0,3.4837,3.486,3.5052,3.4966,3.499,3.5035,3.5087,3.5093,3.5127,3.5179,3.5187,3.5137,3.5233,3.5252,3.5352,3.5403,3.5315,3.5323,3.5617,3.5622,3.5627,3.567,0,0,0,0,0,0,3.483,3.4858,3.4901,3.4967,3.4994,3.5139,3.5091,3.5098,3.5141,3.5138,3.5206,3.5214,3.5232,3.534,3.536,3.5412,3.5329,3.5612,3.5619,3.5625,3.5664,3.5675,3.5685,0,0,0,0,0,3.4821,3.4908,3.4903,3.4927,3.5049,3.5142,3.5157,3.5176,3.5145,3.5189,3.5222,3.5212,3.5394,3.535,3.5373,3.5428,3.5609,3.5617,3.5625,3.5659,3.5673,3.5685,0,0,0,0,0,0,3.4848,3.4917,3.4913,3.5024,3.5077,3.5139,3.5195,3.5191,3.5254,3.5248,3.5268,3.5284,3.5385,3.5417,3.5367,3.554,3.5497,3.551,3.5515,3.5529,3.554,3.5531,3.5336,0,0,0,0,0,3.4867,3.4937,3.4993,3.5086,3.5113,3.5149,3.519,3.52,3.5256,3.5278,3.5319,3.5373,3.5442,3.5487,3.5554,3.5668,3.5682,3.5717,3.5728,3.5737,3.5748,3.5809,3.5825,3.5654,3.5654,3.5654,0,0,3.4908,3.4954,3.4996,3.5093,3.5135,3.5206,3.5168,3.5245,3.5298,3.529,3.5387,3.5418,3.548,3.5587,3.5637,3.5617,3.5798,3.5746,3.5753,3.5759,3.5819,3.5835,3.5849,3.5659,3.5658,3.5657,0,0,3.5017,3.5059,3.5141,3.5184,3.5248,3.5271,3.529,3.5353,3.5374,3.5471,3.5466,3.5529,3.5648,3.5692,3.573,3.5854,3.5847,3.5875,3.5932,3.5992,3.6006,3.6018,3.6062,3.6077,3.5886,3.5886,3.5886,0,3.5059,3.5166,3.5183,3.5261,3.5303,3.5298,3.5381,3.5421,3.5504,3.5533,3.5509,3.5658,3.5699,3.5816,3.5846,3.5878,3.59,3.5868,3.6002,3.6015,3.6026,3.6068,3.6085,3.5889,3.5889,3.5888,3.5888,0,3.5215,3.5289,3.5347,3.5426,3.5475,3.5555,3.5583,3.5631,3.5635,3.5661,3.576,3.5809,3.5885,3.5913,3.5919,3.6031,3.6017,3.5998,3.5956,3.6045,3.6085,3.6101,3.5893,3.5892,3.5891,3.5891,0,0,3.5347,3.5433,3.5454,3.549,3.5559,3.5617,3.5696,3.577,3.5809,3.5866,3.5933,3.6032,3.6015,3.6058,3.6068,3.6121,3.6216,3.6095,3.6097,3.6116,3.6341,3.6355,3.6374,3.6211,3.6214,3.6217,3.6336,0,3.5463,3.5603,3.562,3.5744,3.5812,3.5808,3.5876,3.5926,3.5952,3.6013,3.6042,3.6112,3.6083,3.6109,3.6161,3.6193,3.6261,3.6185,3.6273,3.6276,3.6258,3.6395,3.641,3.652,3.6352,3.6354,3.6356,0,3.5618,3.5678,3.5809,3.5868,3.5897,3.5959,3.6027,3.6086,3.6142,3.6157,3.6204,3.6208,3.6289,3.6243,3.6354,3.6302,3.6339,3.636,3.6364,3.6374,3.6322,3.6408,3.6556,3.6573,3.6381,3.6379,3.6377,0,3.5701,3.5815,3.5908,3.5938,3.6009,3.6052,3.6084,3.6137,3.618,3.624,3.6267,3.6336,3.6373,3.6426,3.6448,3.6412,3.6558,3.6514,3.6572,3.6572,3.6604,3.6601,3.676,3.6627,3.6627,3.6626,3.6626,0,3.5829,3.591,3.5946,3.6003,3.6092,3.6111,3.6198,3.6228,3.6275,3.6338,3.6337,3.6396,3.6421,3.6483,3.65,3.659,3.6607,3.6621,3.6625,3.6621,3.6619,3.6646,3.6639,3.6631,3.663,3.6629,3.6628,0,3.5938,3.5965,3.6066,3.6124,3.6141,3.6204,3.6254,3.6309,3.6333,3.6412,3.6432,3.647,3.6544,3.657,3.6659,3.6671,3.6774,3.6772,3.6755,3.6756,3.6813,3.6807,3.6995,3.702,3.687,3.6872,3.6873,0,3.6018,3.6079,3.6144,3.6186,3.6219,3.6286,3.6329,3.6349,3.6395,3.6462,3.6509,3.6582,3.6641,3.6758,3.6794,3.6862,3.686,3.6921,3.6871,3.6865,3.6861,3.6857,3.6863,3.6931,3.6932,3.6934,3.6935,0,3.6157,3.6167,3.623,3.6297,3.6349,3.6403,3.6455,3.649,3.6517,3.6568,3.6643,3.6688,3.6779,3.6851,3.692,3.6952,3.6948,3.695,3.6967,3.6965,3.6953,3.6959,3.6781,3.6946,3.6945,3.6944,3.6943,3.6943,3.6254,3.6308,3.6361,3.6431,3.6472,3.6521,3.6575,3.6606,3.6668,3.6743,3.6751,3.6831,3.6884,3.6977,3.7012,3.7075,3.7058,3.7083,3.7089,3.7095,3.7099,3.6942,3.7088,3.7087,3.7087,3.7087,3.7087,0,3.6393,3.6427,3.6491,3.6563,3.6618,3.6609,3.6666,3.6712,3.6782,3.6832,3.689,3.6975,3.7045,3.7085,3.7155,3.7197,3.7197,3.7215,3.7212,3.7219,3.711,3.7089,3.7213,3.7213,3.7213,3.7213,3.7213,3.7213,3.6472,3.6562,3.6579,3.6689,3.6723,3.6801,3.6834,3.6879,3.6919,3.7014,3.7071,3.7097,3.7143,3.7216,3.7279,3.7289,3.7314,3.7333,3.7342,3.724,3.7227,3.7214,3.7194,3.7339,3.7339,3.7445,3.7446,3.7447]}]]